Vertical_Velocity
-2 -2 -1 -1 1 -0 -2 1 -4 2 4 -0 -2 -4 -9 -2 -4 -1 0 -2 -6 -1 0 -1 -0 -2 0 1 -0 0 2 1 2 1 -0 -1 1 1 -2 -2 -1 -0 -2 0 1 0 -1 0 -1
-3 -1 -2 -0 -0 -1 -2 3 -5 -2 -1 -6 -3 0 -4 -8 -4 2 -0 2 4 3 1 -0 -3 -2 -2 2 2 1 -1 3 0 -2 -3 -0 -1 1 -1 -0 2 -1 -1 -2 0 -0 2 0 1
-0 -1 1 -3 -2 -8 -2 -2 -5 -2 3 1 4 1 1 -10 -6 -2 -1 -0 -2 -3 -1 -2 -4 1 1 1 1 3 2 1 0 -1 1 -0 4 3 6 2 -4 4 -3 -1 -0 -1 -1 -0 0
-3 1 -1 -6 -4 5 -0 1 6 16 0 1 2 -2 -5 -7 -6 -4 -1 -6 -2 -3 -3 -4 -3 -4 -3 1 1 -1 3 5 0 4 4 3 4 13 2 1 3 -0 5 -3 -0 2 -0 -0 -1
1 -1 1 -7 -10 -5 3 5 10 14 3 -7 5 -2 -8 1 -7 -3 -7 -3 -6 -9 -5 -4 -3 -2 -0 -3 1 1 1 0 3 6 1 -2 -12 -5 25 8 3 2 -0 2 -4 -2 -5 1 -2
1 2 -3 -7 -11 2 -6 -5 -6 12 5 -2 -7 0 -10 -4 -1 -0 -6 -5 1 -1 1 -2 0 -0 0 -1 -0 0 1 11 4 8 24 47 29 -23 32 14 7 6 5 2 1 -2 -1 -2 -2
1 5 -9 -9 -8 -11 4 10 -2 11 23 2 4 6 -3 -6 -2 -6 -1 3 -0 -2 -0 0 -2 -3 1 -2 1 2 5 -1 5 16 -2 -2 -10 4 -20 43 -8 18 9 3 2 -1 -1 1 -5
2 12 -5 -11 -2 -26 5 -5 -5 1 2 4 -3 -7 -10 -4 0 5 -2 1 -4 -4 -0 -0 1 -0 -0 -1 1 2 4 5 10 12 18 3 -5 2 -1 -8 20 16 -7 -1 0 2 2 -2 -1
7 0 -10 -9 -5 -9 -7 -4 18 8 -1 -2 6 7 3 3 -5 3 -4 2 -2 -1 -3 0 1 0 0 -1 3 3 2 2 4 -2 3 2 6 -8 -22 13 25 -2 5 -5 1 0 5 -9 -1
3 -3 -22 4 1 -4 3 2 6 29 4 -8 2 -7 3 -4 -1 -3 -3 1 3 2 -3 -2 2 -2 -0 -0 -0 1 1 -1 0 2 -17 -1 1 -1 22 21 19 11 3 -2 -3 5 4 -5 -1
-3 -11 4 -11 6 3 -3 -9 12 14 9 -4 -0 11 -1 0 2 -2 -0 3 5 7 1 -3 0 -1 -1 0 -1 -0 0 -1 -1 4 0 0 4 14 13 4 7 1 -1 -3 -6 3 2 -3 -3
-5 3 -2 -11 -2 2 -8 1 -2 9 0 13 -4 6 1 -9 -1 2 1 -2 2 2 -3 -3 2 -1 -2 0 0 -0 1 1 -4 2 -2 -12 -9 19 41 -1 3 -6 -2 -0 -1 3 4 -7 -4
3 -9 7 -5 3 2 -0 -7 -10 -5 0 8 12 1 3 0 2 4 -2 -8 -0 -2 -1 -5 0 -3 -2 -2 1 2 0 2 2 -4 -3 -16 -21 -16 -21 -4 -0 3 0 1 -1 -1 -1 5 -12
-2 2 1 1 -2 3 5 -13 23 -1 8 2 5 19 10 3 6 3 -6 -7 -6 -1 -2 -1 1 0 1 -2 -0 2 -2 1 4 3 1 -4 -6 2 5 2 4 3 -1 4 -0 2 2 7 -7
-2 -1 -1 1 -4 -8 11 -30 -12 -6 3 3 -10 1 7 2 1 3 2 -6 -8 2 0 -0 0 0 1 1 1 1 -1 -0 0 2 2 2 1 -2 8 7 -5 3 -2 1 0 -3 5 4 -10
2 6 -5 -8 5 -0 19 -64 -5 -7 9 -4 -6 -5 -1 2 6 6 3 -3 -3 -1 -1 0 -2 0 1 -1 -1 3 0 -1 4 -0 0 1 -0 1 9 -1 9 -6 7 -2 2 -3 4 4 -6
1 -9 -7 1 7 3 18 -35 -1 8 7 -2 -0 -5 -2 5 2 -3 -1 -8 -2 1 -1 0 -2 -1 0 4 4 1 2 1 1 4 -1 0 0 -5 -9 10 1 12 -3 -3 6 1 1 4 -7
-9 -0 -1 5 -10 5 8 -13 20 -2 11 4 2 6 -0 4 -7 1 1 -3 3 2 -2 -3 -1 1 -3 -3 1 2 1 1 1 0 1 3 -4 18 1 -2 -3 2 3 0 -2 4 7 11 -3
4 -0 3 -11 -2 0 5 -6 0 -1 -9 -7 -16 -1 -3 -1 2 6 -2 -3 3 3 1 -1 -2 -0 -2 -3 -1 0 -1 -0 0 -0 -2 3 27 18 33 -18 34 4 -4 2 5 3 7 8 2
8 1 -8 0 4 30 -27 -30 -4 -8 -10 3 1 -6 -12 -9 4 2 -5 -5 1 5 4 -1 -3 -2 1 -2 -0 -0 -2 -2 0 2 -0 1 4 8 -4 6 -8 14 11 -1 -4 3 -1 5 -1
-0 1 2 1 -14 5 -5 -45 -12 -13 -4 -0 16 3 3 6 9 2 -6 -8 3 2 4 -1 -1 -3 2 -1 -1 -1 -1 1 -2 -2 1 1 2 6 2 11 24 8 13 2 -2 -3 -11 4 2
2 2 2 -5 3 -8 7 -18 -24 -10 -10 1 13 6 5 3 8 9 3 -4 -0 5 1 -2 1 -0 1 -0 -1 -1 -2 -2 0 3 -0 1 -2 1 8 9 10 17 11 -1 2 4 -7 -0 1
-1 4 -1 6 -1 5 -4 13 -86 9 -10 -8 -7 6 0 5 2 3 -2 -0 5 4 0 1 -0 -2 -2 1 -2 -1 -3 -3 -1 1 1 -5 -3 -11 -11 -7 32 17 0 3 5 -0 -1 3 -13
-0 0 2 -1 4 8 -6 3 -38 -2 -11 -8 -7 -6 -3 -2 -7 4 16 6 5 2 1 1 -1 -1 -1 1 -1 -1 -2 -3 -3 -2 3 -9 -6 2 2 7 -4 0 0 11 -6 12 -2 -2 6
0 5 4 7 10 -8 6 17 -42 -21 -4 -6 -4 5 1 -0 11 9 -6 -4 0 -2 2 2 -3 1 0 -1 -1 -2 -2 -3 -3 -3 -2 -8 -7 -3 -3 -4 -8 -7 -4 -2 -1 4 -7 -8 0
-2 4 0 -3 -1 -1 -13 -3 -22 -18 3 -6 -6 2 -5 7 -3 1 3 -0 0 4 1 2 -3 -1 2 1 -1 -3 -0 -3 -1 -2 -2 -2 -4 1 1 -0 0 6 10 6 4 5 5 2 -9
-3 -2 -3 5 -0 -1 -1 -6 1 5 -28 -31 -15 0 -11 7 -11 -0 5 -0 3 1 4 5 -2 -0 4 -2 1 -0 -1 -1 -3 -1 -4 -6 -4 -4 -5 -1 1 3 3 -3 6 8 11 5 6
-5 2 11 3 1 0 -2 0 4 11 -3 39 -1 -3 10 -3 3 4 5 4 3 8 2 7 -4 3 3 1 -2 1 -2 -0 0 -1 -2 -2 -0 -6 -4 -1 -1 -3 -1 -1 -3 -6 -3 -2 -3
-6 7 -4 8 2 -0 0 3 -2 10 -4 14 6 9 14 9 5 -2 3 8 8 8 -2 7 1 -1 0 4 0 -2 -1 -2 -1 1 -1 -3 -3 -1 -1 -4 -4 -2 -2 0 -0 -3 -2 -3 -0
-6 -3 0 10 1 1 -0 -5 -7 9 14 8 11 -17 23 11 -4 -4 -0 6 7 1 5 6 2 2 -1 -0 2 -0 -2 -3 -1 -0 2 -1 0 0 1 -1 -2 -3 -4 -5 1 1 3 1 -1
Height
3138 3138 3138 3138 3141 3135 3132 3132 3131 3132 3133 3131 3131 3131 3131 3131 3133 3134 3129 3130 3132 3134 3134 3135 3135 3136 3135 3135 3136 3137 3138 3139 3139 3140 3140 3141 3142 3142 3142 3143 3144 3145 3146 3147 3149 3150 3151 3153 3154
3136 3136 3137 3136 3136 3132 3130 3128 3127 3129 3130 3130 3129 3129 3127 3128 3129 3129 3129 3130 3131 3131 3131 3132 3132 3133 3133 3133 3133 3134 3136 3135 3136 3136 3137 3139 3140 3140 3140 3140 3142 3143 3144 3145 3147 3149 3150 3151 3153
3132 3133 3135 3134 3130 3127 3130 3128 3128 3129 3128 3128 3127 3126 3123 3125 3127 3128 3129 3129 3129 3130 3129 3128 3129 3129 3129 3129 3130 3131 3132 3132 3133 3133 3134 3135 3137 3138 3139 3139 3139 3141 3142 3143 3145 3146 3148 3150 3152
3129 3131 3132 3129 3125 3125 3126 3128 3129 3128 3126 3126 3124 3122 3123 3122 3125 3126 3126 3126 3127 3127 3126 3126 3125 3125 3126 3126 3127 3127 3128 3128 3129 3129 3130 3131 3133 3135 3136 3138 3137 3139 3141 3142 3144 3145 3146 3148 3150
3126 3127 3127 3124 3121 3122 3123 3124 3126 3126 3124 3123 3123 3120 3122 3120 3121 3123 3123 3123 3123 3124 3123 3122 3122 3122 3122 3123 3123 3123 3123 3124 3125 3125 3126 3125 3126 3121 3131 3136 3136 3136 3138 3140 3142 3144 3145 3147 3149
3123 3122 3122 3120 3119 3119 3120 3122 3120 3123 3121 3119 3120 3118 3119 3120 3120 3120 3121 3121 3120 3120 3119 3119 3118 3117 3118 3118 3118 3118 3118 3119 3119 3121 3122 3115 3119 3120 3120 3129 3134 3134 3136 3138 3140 3142 3144 3145 3150
3117 3116 3117 3117 3115 3115 3117 3118 3117 3119 3119 3117 3117 3115 3116 3117 3118 3117 3117 3117 3118 3117 3115 3114 3113 3113 3112 3112 3113 3113 3112 3113 3114 3114 3116 3115 3115 3118 3118 3122 3125 3132 3133 3135 3138 3141 3143 3144 3148
3114 3112 3112 3113 3111 3111 3116 3114 3114 3119 3118 3117 3115 3113 3114 3115 3116 3115 3115 3114 3114 3113 3111 3109 3108 3107 3107 3106 3107 3108 3107 3107 3109 3110 3110 3109 3111 3113 3119 3117 3124 3128 3132 3133 3136 3139 3141 3143 3146
3108 3106 3104 3104 3109 3111 3112 3112 3118 3118 3116 3115 3113 3112 3113 3113 3113 3113 3112 3111 3110 3109 3108 3105 3103 3102 3101 3100 3100 3101 3102 3102 3103 3103 3103 3102 3105 3105 3102 3113 3121 3126 3127 3131 3135 3137 3139 3140 3146
3100 3095 3096 3102 3106 3107 3108 3109 3112 3116 3113 3111 3111 3109 3108 3108 3108 3110 3109 3108 3107 3106 3104 3102 3099 3096 3095 3095 3094 3096 3097 3097 3097 3096 3096 3094 3093 3095 3103 3109 3115 3122 3124 3128 3131 3135 3137 3139 3144
3093 3085 3094 3098 3101 3103 3103 3104 3107 3110 3109 3109 3108 3105 3104 3104 3103 3105 3105 3105 3104 3103 3101 3097 3094 3092 3090 3091 3091 3093 3093 3092 3093 3094 3093 3087 3086 3092 3100 3105 3110 3117 3122 3126 3128 3132 3135 3134 3140
3085 3086 3090 3092 3096 3097 3099 3101 3100 3104 3106 3106 3103 3101 3099 3099 3101 3101 3101 3102 3101 3100 3098 3095 3092 3090 3087 3089 3089 3089 3089 3089 3090 3090 3090 3081 3086 3093 3095 3104 3109 3116 3120 3123 3126 3130 3134 3133 3140
3079 3083 3085 3088 3089 3091 3094 3092 3093 3094 3100 3102 3102 3097 3095 3094 3096 3097 3097 3098 3098 3096 3094 3092 3090 3089 3086 3085 3087 3086 3086 3086 3087 3089 3090 3089 3090 3095 3098 3103 3106 3112 3118 3121 3126 3129 3133 3133 3137
3077 3078 3079 3081 3082 3085 3088 3086 3088 3089 3093 3093 3096 3095 3091 3090 3090 3090 3091 3092 3094 3092 3091 3090 3087 3087 3085 3084 3084 3084 3083 3083 3084 3087 3088 3090 3090 3094 3098 3102 3106 3109 3116 3120 3123 3127 3131 3132 3135
3071 3070 3072 3072 3075 3077 3083 3074 3075 3083 3087 3086 3086 3089 3088 3086 3084 3085 3087 3088 3088 3088 3087 3086 3085 3084 3083 3082 3081 3081 3080 3079 3081 3084 3086 3088 3089 3092 3096 3100 3105 3109 3114 3117 3121 3124 3128 3129 3133
3067 3066 3061 3065 3071 3075 3080 3063 3070 3077 3079 3079 3080 3081 3082 3083 3082 3081 3082 3084 3085 3084 3084 3083 3081 3080 3079 3078 3078 3077 3075 3075 3076 3078 3082 3084 3086 3089 3093 3097 3101 3106 3108 3113 3117 3121 3124 3127 3131
3061 3057 3056 3060 3067 3072 3072 3064 3064 3071 3072 3071 3072 3074 3075 3077 3078 3077 3078 3081 3080 3081 3081 3080 3078 3076 3074 3073 3072 3071 3069 3068 3071 3073 3076 3079 3082 3086 3088 3091 3098 3102 3105 3109 3112 3116 3122 3124 3127
3053 3053 3053 3054 3063 3065 3062 3060 3060 3062 3063 3064 3064 3066 3068 3070 3071 3072 3074 3076 3076 3077 3078 3077 3075 3073 3070 3069 3066 3064 3062 3061 3063 3067 3070 3074 3077 3082 3085 3089 3093 3093 3099 3103 3106 3112 3118 3122 3124
3050 3050 3047 3051 3057 3057 3054 3053 3050 3053 3054 3054 3054 3057 3060 3063 3066 3066 3068 3070 3071 3073 3073 3073 3071 3069 3067 3065 3062 3060 3059 3057 3057 3061 3064 3068 3072 3075 3076 3083 3081 3087 3091 3097 3103 3109 3114 3119 3121
3045 3044 3043 3045 3051 3048 3043 3036 3038 3043 3044 3045 3047 3050 3053 3057 3058 3060 3060 3063 3066 3069 3070 3069 3068 3066 3064 3062 3059 3057 3055 3055 3055 3055 3058 3061 3066 3069 3072 3077 3083 3083 3086 3091 3096 3105 3108 3115 3118
3037 3037 3040 3043 3043 3042 3042 3032 3032 3035 3037 3038 3041 3044 3047 3051 3053 3053 3053 3057 3060 3064 3066 3066 3065 3064 3062 3059 3057 3056 3053 3053 3053 3054 3056 3058 3060 3063 3067 3071 3073 3076 3080 3088 3092 3098 3103 3110 3113
3032 3035 3036 3040 3042 3042 3045 3026 3023 3028 3029 3029 3032 3037 3040 3044 3047 3048 3048 3051 3056 3060 3062 3062 3062 3060 3059 3058 3056 3054 3053 3052 3053 3054 3055 3056 3057 3059 3063 3064 3066 3069 3076 3083 3088 3092 3099 3108 3113
3028 3031 3033 3036 3036 3038 3037 3037 3011 3023 3021 3022 3024 3028 3033 3038 3040 3040 3042 3046 3051 3055 3057 3058 3058 3058 3057 3055 3054 3052 3051 3050 3051 3053 3053 3053 3055 3055 3057 3059 3061 3069 3075 3080 3085 3091 3098 3105 3108
3023 3025 3028 3032 3034 3026 3027 3030 3012 3013 3016 3019 3019 3022 3025 3030 3030 3033 3038 3042 3046 3050 3053 3055 3056 3055 3055 3054 3053 3051 3049 3048 3048 3049 3051 3052 3054 3056 3060 3065 3068 3072 3075 3079 3084 3090 3095 3100 3106
3018 3021 3025 3029 3023 3010 3014 3017 3006 3009 3012 3014 3015 3017 3018 3020 3021 3026 3031 3036 3041 3045 3049 3051 3052 3052 3052 3052 3051 3050 3048 3046 3045 3045 3048 3050 3054 3058 3061 3063 3066 3069 3074 3078 3081 3086 3091 3095 3100
3013 3016 3015 3015 3012 3009 3015 3005 3001 3004 3009 3012 3011 3012 3011 3012 3015 3020 3026 3032 3037 3040 3044 3046 3048 3049 3050 3050 3050 3049 3048 3045 3044 3043 3045 3049 3052 3057 3060 3062 3065 3068 3071 3075 3078 3082 3087 3090 3094
3010 3012 3015 3011 3009 3009 3003 3001 3004 3002 3003 3007 3005 3007 3005 3005 3010 3016 3022 3027 3032 3037 3039 3042 3044 3045 3047 3048 3049 3049 3048 3046 3045 3045 3045 3047 3050 3055 3058 3061 3063 3065 3067 3069 3074 3077 3081 3084 3089
3006 3011 3012 3009 3008 3005 2997 2998 3000 2997 3004 3002 2998 3001 3004 3004 3007 3013 3018 3023 3028 3032 3035 3036 3040 3042 3044 3045 3046 3047 3047 3047 3046 3046 3046 3048 3050 3051 3054 3057 3060 3062 3064 3067 3070 3073 3077 3081 3084
3006 3007 3008 3007 3006 3004 3001 2998 2996 2996 2999 2997 2998 3000 3002 3001 3004 3008 3014 3020 3025 3028 3031 3033 3035 3038 3040 3042 3043 3045 3045 3045 3046 3046 3046 3048 3049 3051 3052 3053 3056 3058 3060 3063 3065 3068 3072 3075 3078
3004 3004 3005 3002 3003 3002 3001 2998 2994 2994 2997 2998 2998 2998 3000 2997 2999 3005 3011 3016 3021 3025 3027 3029 3032 3033 3035 3037 3039 3040 3042 3043 3043 3045 3046 3046 3048 3049 3051 3052 3053 3055 3057 3059 3062 3064 3066 3069 3071